Location: Ch�ne
(45.8483°N, 5.1554°E)
Time: 18:49:58
(UTC+00:00)

Daily predictions for brighter satellites

Satellite Brightness Start Highest point End
(mag) Time Altitude Azimuth Time Altitude Azimuth Time Altitude Azimuth
ATLAS 2AS CENTAUR R/B 3.2 17:38:27 10° SSW 17:46:10 59° ESE 17:53:53 10° NE
Cosmos 1269 Rocket 4.3 17:46:00 10° NNW 17:51:11 49° ENE 17:56:18 10° SE
Cosmos 1939 Rocket 2.9 17:47:20 10° SSE 17:51:29 86° ENE 17:55:37 10° NNW
Cosmos 2082 Rocket 3.5 17:48:29 10° N 17:52:49 22° NE 17:57:09 10° E
Cosmos 1092 Rocket 4.4 17:52:14 10° N 17:58:05 41° ENE 18:03:57 10° SE
Cosmos 1464 Rocket 4.0 17:52:41 10° S 17:58:51 88° E 18:05:08 10° N
BREEZE-M DEB (TANK) 2.7 17:56:45 10° WNW 17:59:26 68° SSW 18:06:25 10° ESE
PSLV R/B 4.0 17:56:33 10° NNE 18:00:47 88° WNW 18:04:59 10° SSW
COSMOS 2455 4.0 17:57:43 10° SSE 18:01:59 20° ESE 18:06:17 10° ENE
COSMO-SKYMED 1 2.7 17:58:09 10° N 18:02:31 81° WNW 18:06:51 10° SSW
Cosmos 1844 Rocket 3.4 17:57:25 10° SW 18:02:54 57° WNW 18:08:26 10° NNE
Okean-O 2.6 17:58:41 10° SSE 18:03:06 81° ENE 18:07:33 10° NNW
Cosmos 2151 Rocket 3.7 18:00:19 10° S 18:04:49 90° W 18:09:22 10° N
CZ-2C R/B 3.4 17:59:31 10° SSE 18:04:55 56° ENE 18:10:33 10° N
Cosmos 1689 Rocket 3.4 18:03:32 10° N 18:06:24 44° WNW 18:09:12 10° SSW
H-2A R/B 2.4 18:02:03 10° SE 18:06:49 42° ENE 18:11:43 10° N
Cosmos 2285 Rocket 4.1 18:07:32 10° SSW 18:13:51 89° WNW 18:20:17 10° NNE
KORONAS-FOTON 3.8 18:10:16 10° N 18:14:13 76° E 18:18:06 10° SSE
Cosmos 1025 Rocket 4.1 18:12:41 10° NNW 18:16:57 50° W 18:21:12 10° SSW
ISS -2.6 18:15:46 10° NW 18:18:54 34° NNE 18:21:09 16° ENE
Cosmos 1805 3.2 18:16:20 10° S 18:20:13 67° E 18:24:08 10° NNE
TSX-5 4.3 18:16:54 10° SW 18:20:56 77° WNW 18:26:14 10° NNE
Cosmos 2278 Rocket 2.4 18:17:32 10° S 18:22:52 45° ESE 18:28:15 10° NE
Gbstr 26 Del rocket 4.5 18:16:47 10° SSW 18:23:01 49° SE 18:30:22 10° ENE
CSL-04 Rocket 3.7 18:25:03 10° SSE 18:30:31 78° ENE 18:36:05 10° NNW
HJ-1C 3.3 18:27:21 10° SSE 18:30:36 63° ENE 18:33:54 10° N
Cosmos 1833 Rocket 2.7 18:25:38 10° NNW 18:31:16 61° ENE 18:36:36 11° SE
Okean 1 Rocket 3.0 18:26:52 10° S 18:31:21 81° E 18:35:51 10° N
Nadezhda 4 Rocket 4.3 18:26:04 10° NNW 18:32:11 72° W 18:38:17 10° S
Cosmos 2251 Rocket 4.3 18:27:48 10° N 18:32:40 34° ENE 18:35:38 20° ESE
CSL-04 Debris 4.1 18:30:55 10° SSE 18:36:18 90° ENE 18:41:45 10° NNW
Okean 1-7 Rocket 4.5 18:32:20 10° N 18:36:22 30° ENE 18:38:11 22° ESE
Cosmos 1340 Rocket 2.9 18:32:30 10° S 18:36:22 53° E 18:40:19 10° NNE
COSMOS 2406 3.2 18:31:56 10° NNW 18:37:39 88° ENE 18:43:21 10° SSE
YAOGAN 1 3.3 18:36:52 10° S 18:41:07 54° W 18:45:22 10° NNW
Lacrosse 4 Rocket 1.4 18:39:09 10° NNW 18:43:11 56° NE 18:45:15 26° SE
Cosmos 1674 4.0 18:40:47 10° NNW 18:44:26 43° W 18:48:03 10° SSW
Lacrosse 5 rocket 2.2 18:40:47 10° NW 18:44:59 42° NNE 18:46:58 27° E
CZ-4C R/B 2.3 18:43:30 10° S 18:48:04 42° ESE 18:53:28 10° NE
Cosmos 1758 4.5 18:50:55 25° ENE 18:50:55 25° ENE 18:53:25 10° NNE
Exosat Rocket 4.4 18:45:32 10° SW 18:50:33 51° WNW 18:55:33 10° NNE
CZ-4 R/B 3.3 18:50:32 10° SSW 18:54:16 32° W 18:57:59 10° NNW
Shenzhou-11 Module 3.6 18:53:32 10° WSW 18:54:23 16° SW 18:54:23 16° SW
ARGOS 3.1 18:52:52 10° SSE 18:58:15 88° ENE 19:03:41 10° NNW
OE (NEXTSAT) 4.2 18:55:01 10° W 18:58:31 88° SSE 18:59:13 54° E
Cosmos 1892 Rocket 3.4 18:54:34 10° N 18:58:56 66° E 19:01:33 23° SSE
Meteor 1-24 Rocket 3.8 18:55:56 10° NNW 19:01:39 83° W 19:07:33 10° S
APEX 2.9 18:59:08 10° SSW 19:02:19 58° ESE 19:03:27 38° NE
MOS 1 Rocket 3.1 18:58:14 10° N 19:02:33 78° WNW 19:06:50 10° SSW
CZ-2C R/B 2.9 18:57:10 10° NNE 19:02:38 49° E 19:08:03 10° S
USA 186 1.7 19:04:00 63° ENE 19:04:00 63° ENE 19:07:14 10° N
Cosmos 1626 2.6 19:01:04 10° NNW 19:04:43 60° W 19:08:21 10° S
MOS 1 4.4 19:03:07 26° SE 19:06:17 57° ENE 19:11:52 10° N
Meteor 1-22 Rocket 4.4 19:00:40 10° SSW 19:06:40 83° W 19:12:50 10° N
Aureole 2 Rocket 4.0 19:05:13 10° SW 19:08:14 33° WNW 19:11:14 10° N
Cosmos 1470 2.6 19:08:01 46° SSE 19:08:53 60° E 19:12:43 10° NNE
Ariane Rocket 2.9 19:06:14 28° SE 19:08:55 65° ENE 19:13:58 10° N
Resurs 01 Rocket 3.2 19:10:01 20° NE 19:10:01 20° NE 19:12:21 10° NNE
SL-14 R/B 3.7 19:06:51 10° NNW 19:10:48 62° W 19:14:30 12° S
NOSS 3-4 (A) 4.5 19:09:10 10° WSW 19:14:50 44° NW 19:20:57 10° NNE
NOSS 3-4 (C) 4.5 19:09:14 10° WSW 19:14:55 44° NW 19:21:03 10° NNE
SL-8 R/B 3.6 19:11:25 10° SW 19:16:10 64° SSE 19:17:03 53° ESE
Cosmos 2098 Rocket 3.7 19:12:49 10° N 19:18:40 50° ENE 19:19:21 47° E
MetOp-A 4.1 19:16:54 36° SE 19:19:01 66° ENE 19:24:20 10° N
Resurs 1-3 4.3 19:23:00 38° NE 19:23:00 38° NE 19:26:24 10° N
Milstar 3 Cent rocket 4.3 19:17:58 10° WSW 19:23:08 17° SSW 19:25:28 14° S
RESURS DK-1 2.8 19:19:19 10° SW 19:23:25 61° WNW 19:27:33 10° NNE
Cosmos 407 Rocket 4.4 19:19:10 10° N 19:23:25 31° NE 19:23:25 31° NE
SL-08 RB Rocket 3.9 19:22:59 24° S 19:25:42 69° WSW 19:30:12 10° NNW
Cosmos 1634 Rocket 4.4 19:19:47 10° SSW 19:25:55 64° WNW 19:32:07 10° N
ATLAS 3B R/B 3.2 19:20:05 10° NW 19:26:50 58° WSW 19:31:52 20° SSE
Cosmos 1461 3.3 19:32:07 10° NNW 19:36:42 62° NE 19:36:42 62° NE
Meteor 2-10 3.9 19:35:05 41° S 19:37:00 72° E 19:42:16 10° NNE
ATLAS 2AS CENTAUR R/B 4.0 19:29:54 10° WSW 19:37:29 46° NW 19:44:57 10° NNE
Cosmos 2082 Rocket 2.3 19:31:52 10° NNW 19:37:30 74° WSW 19:39:28 41° S
Cosmos 1626 Rocket 4.2 19:40:48 10° N 19:44:08 48° NNE 19:44:08 48° NNE
H-2A R/B 4.0 19:42:07 10° SSW 19:46:23 27° W 19:50:47 10° NW
COSMOS 2455 3.0 19:41:15 10° SW 19:47:17 75° NW 19:53:21 10° NNE
Cosmos 1455 Rocket 3.7 19:43:14 10° SSW 19:47:31 53° WNW 19:51:48 10° N
SJ-6B 3.7 19:50:50 46° WNW 19:50:50 46° WNW 19:54:11 10° NNW
OBJECT-B 3.5 19:55:53 16° NNW 19:55:53 16° NNW 19:56:41 10° NNW
Cosmos 2279 Rocket 4.4 19:48:26 10° SSW 19:54:37 62° WNW 20:00:51 10° N
ISS -1.4 19:52:34 10° WNW 19:54:07 25° WNW 19:54:07 25° WNW
Meteor 1-21 Rocket 4.2 19:51:53 10° N 19:57:47 89° E 19:58:18 76° SSE
DMSP B5D2-2 4.4 19:54:30 10° N 19:59:46 66° WNW 20:04:58 10° SSW
Cosmos 1655 Rocket 4.1 19:56:02 10° NNW 20:02:21 76° W 20:04:13 48° SSW
Cosmos 2278 Rocket 3.9 20:02:04 10° WSW 20:07:07 32° NW 20:12:11 10° N
ATLAS CENTAUR R/B 4.1 20:05:25 10° N 20:05:28 10° N 20:05:28 10° N
Cosmos 909 Rocket 4.4 20:03:36 10° NW 20:09:49 57° WSW 20:10:58 50° SSW
Gbstr 26 Del rocket 4.5 20:03:17 10° WSW 20:10:18 73° NNW 20:13:01 44° NE
Lacrosse 4 Rocket 3.9 20:18:58 10° WNW 20:21:26 16° WSW 20:21:36 15° WSW
Lacrosse 5 rocket 3.3 20:19:58 10° WNW 20:22:36 30° W 20:22:36 30° W
CZ-4C R/B 3.4 20:31:47 10° WSW 20:36:37 39° NW 20:42:23 10° NNE
Terra 4.5 20:45:21 12° N 20:45:21 12° N 20:45:43 10° N
Resurs 01 Rocket 3.9 20:47:36 22° NW 20:47:36 22° NW 20:49:26 10° NNW
